DW9584 Weather Reports


Display with metric or nautical units.
time (UTC)temp
F
wind
direction
speed
MPH
gust
MPH
rain 1hr
in
rain 24hr
in
rain mn
in
humidity
%
barometer
mb
20200712100150 67 174 0.0 0.0 0.00 0.06 0.00 93 1007.4
20200712095547 67 174 0.0 0.0 0.00 0.06 0.00 93 1007.2
20200712095038 67 174 0.0 0.0 0.00 0.06 0.00 93 1007.2
20200712094708 67 174 0.0 0.0 0.00 0.06 0.00 92 1007.2
20200712094039 67 174 0.0 0.0 0.00 0.06 0.00 92 1007.1
20200712093546 67 174 0.0 0.0 0.00 0.06 0.00 92 1007.1
20200712093156 67 174 0.0 0.0 0.00 0.06 0.00 92 1006.9
20200712092544 68 174 0.0 0.0 0.00 0.06 0.00 91 1006.9
20200712092034 68 174 0.0 0.0 0.00 0.06 0.00 91 1006.8
20200712091544 68 174 0.0 0.0 0.00 0.06 0.00 91 1006.8
20200712091033 68 174 0.0 0.0 0.00 0.06 0.00 91 1006.8
20200712090531 68 174 0.0 0.0 0.00 0.06 0.00 91 1006.7
20200712090133 68 174 0.0 0.0 0.00 0.06 0.00 90 1006.6
20200712085529 69 174 0.0 0.0 0.00 0.06 0.00 90 1006.6
20200712085058 69 174 0.0 0.0 0.00 0.06 0.00 90 1006.6
20200712084600 69 174 0.0 0.0 0.00 0.06 0.00 89 1006.7
20200712084032 69 174 0.0 0.0 0.00 0.06 0.00 89 1006.7
20200712083536 69 174 0.0 0.0 0.00 0.06 0.00 89 1006.8
20200712083109 69 174 0.0 0.0 0.00 0.06 0.00 89 1006.7
20200712082548 69 174 0.0 0.0 0.00 0.06 0.00 89 1006.7
20200712082042 70 174 0.0 0.0 0.00 0.06 0.00 89 1006.6
20200712081619 70 174 0.0 0.0 0.00 0.06 0.00 88 1006.7
20200712081031 70 174 0.0 0.0 0.00 0.06 0.00 88 1006.7
20200712080527 70 174 0.0 0.0 0.00 0.06 0.00 88 1006.7
20200712080130 70 174 0.0 0.0 0.00 0.06 0.00 88 1006.7
20200712075527 70 174 0.0 0.0 0.00 0.06 0.00 88 1006.7
20200712075033 70 174 0.0 0.0 0.00 0.06 0.00 88 1006.7
20200712074547 70 174 0.0 0.0 0.00 0.06 0.00 87 1006.6
20200712074030 70 174 0.0 0.0 0.00 0.06 0.00 87 1006.6
20200712073535 71 174 0.0 0.0 0.00 0.06 0.00 87 1006.6
20200712073055 71 174 0.0 0.0 0.00 0.06 0.00 86 1006.6
20200712072526 71 174 0.0 0.0 0.00 0.06 0.00 86 1006.6
20200712072024 71 174 0.0 0.0 0.00 0.06 0.00 86 1006.7
20200712071556 71 174 0.0 0.0 0.00 0.06 0.00 86 1006.7
20200712071024 71 195 0.0 0.0 0.00 0.06 0.00 86 1006.8
20200712070524 71 195 0.0 0.0 0.00 0.06 0.00 86 1006.8
20200712070033 71 195 0.0 0.0 0.00 0.06 0.00 86 1006.9
20200712065523 71 195 0.0 0.0 0.00 0.06 0.00 86 1006.9
20200712065026 71 195 0.0 0.0 0.00 0.06 0.00 86 1006.9
20200712064549 71 195 0.0 0.0 0.00 0.06 0.00 86 1006.9
20200712064034 71 195 0.0 0.0 0.00 0.06 0.00 86 1006.8
20200712063528 71 195 0.0 0.0 0.00 0.06 0.00 86 1006.8
20200712063153 71 195 0.0 0.0 0.00 0.06 0.00 86 1006.8
20200712062527 71 235 0.0 0.0 0.00 0.06 0.00 86 1006.9
20200712062034 72 235 0.0 0.0 0.00 0.06 0.00 86 1006.9
20200712061553 72 235 0.0 0.0 0.00 0.06 0.00 86 1006.8
20200712061029 72 235 0.0 0.0 0.00 0.06 0.00 85 1006.8
20200712060534 72 235 0.0 0.0 0.00 0.06 0.00 86 1006.8
20200712060142 72 235 0.0 0.0 0.00 0.06 0.00 85 1006.9
20200712055520 73 235 0.0 0.0 0.00 0.06 0.00 84 1007.1
20200712055032 73 235 0.0 0.0 0.00 0.06 0.00 84 1007.1
20200712054514 73 235 0.0 0.0 0.00 0.06 0.00 84 1007.0
20200712054015 73 235 0.0 1.0 0.00 0.06 0.00 84 1007.1
20200712053514 73 224 0.0 0.0 0.00 0.06 0.00 84 1007.2
20200712053030 73 224 0.0 0.0 0.00 0.06 0.00 83 1007.2
20200712052516 73 224 0.0 0.0 0.00 0.06 0.00 83 1007.2
20200712052008 73 224 0.0 0.0 0.00 0.06 0.00 82 1007.2
20200712051523 73 224 0.0 0.0 0.00 0.06 0.00 82 1007.2
20200712051009 74 224 0.0 0.0 0.00 0.06 0.00 81 1007.2
20200712050517 74 224 0.0 0.0 0.00 0.06 0.00 80 1007.1
20200712050026 74 224 0.0 0.0 0.00 0.06 0.00 80 1007.0
20200712045506 75 224 0.0 0.0 0.00 0.06 0.00 79 1006.9
20200712045007 75 224 0.0 0.0 0.00 0.06 0.00 79 1006.9
20200712044513 75 224 0.0 0.0 0.00 0.06 0.00 79 1006.8
20200712044005 75 224 0.0 0.0 0.00 0.06 0.00 79 1006.8
20200712043503 75 224 0.0 0.0 0.00 0.06 0.00 79 1006.9
20200712043004 76 224 0.0 0.0 0.00 0.06 0.00 78 1006.8
20200712042507 76 224 0.0 0.0 0.00 0.06 0.00 77 1007.0
20200712041601 76 224 0.0 0.0 0.00 0.06 0.00 76 1007.1
20200712041059 76 224 0.0 0.0 0.00 0.06 0.00 76 1007.1
20200712040557 77 224 0.0 0.0 0.00 0.06 0.00 75 1007.1
20200712040216 77 224 0.0 0.0 0.00 0.06 0.00 75 1007.0
20200712035606 77 224 0.0 0.0 0.00 0.06 0.06 75 1007.0
20200712034621 76 274 0.0 1.0 0.00 0.06 0.06 73 1007.0
20200712034109 76 5 0.0 1.0 0.00 0.06 0.06 75 1007.0
20200712033620 77 217 0.0 1.0 0.00 0.06 0.06 75 1007.0
20200712033128 78 217 0.0 1.0 0.00 0.06 0.06 75 1007.0
20200712032605 78 217 0.0 1.0 0.00 0.06 0.06 76 1007.0
20200712032055 78 60 0.0 1.0 0.00 0.06 0.06 75 1006.9
20200712031641 78 4 0.0 1.0 0.00 0.06 0.06 75 1006.9
20200712031054 78 117 0.0 1.0 0.00 0.06 0.06 76 1007.0
20200712030637 78 118 0.0 1.0 0.00 0.06 0.06 75 1006.9
20200712030106 78 115 0.0 2.0 0.00 0.06 0.06 76 1006.9
20200712025600 78 128 0.0 3.0 0.00 0.06 0.06 76 1006.8
20200712024654 78 90 0.0 0.0 0.00 0.06 0.06 76 1006.8
20200712024100 78 90 0.0 0.0 0.00 0.06 0.06 77 1006.8
20200712023603 78 90 0.0 0.0 0.00 0.06 0.06 77 1006.7
20200712023210 78 90 0.0 1.0 0.00 0.06 0.06 76 1006.6
20200712022559 78 146 0.0 1.0 0.00 0.06 0.06 76 1006.6
20200712022106 79 131 0.0 0.0 0.00 0.06 0.06 76 1006.5
20200712021625 78 84 0.0 1.0 0.00 0.06 0.06 76 1006.5
20200712021055 78 325 0.0 1.0 0.00 0.06 0.06 76 1006.5
20200712020555 78 110 0.0 1.0 0.00 0.06 0.06 77 1006.5
20200712020129 78 104 0.0 0.0 0.00 0.06 0.06 76 1006.4
20200712015608 78 104 0.0 0.0 0.00 0.07 0.06 76 1006.4
20200712014614 79 22 0.0 0.0 0.00 0.07 0.06 76 1006.3
20200712014105 78 20 0.0 1.0 0.00 0.07 0.06 76 1006.3
20200712013557 78 63 0.0 1.0 0.00 0.07 0.06 77 1006.2
20200712013121 78 41 0.0 1.0 0.00 0.07 0.06 77 1006.2
20200712012607 78 153 0.0 2.0 0.00 0.07 0.06 77 1006.1
20200712012058 78 152 0.0 2.0 0.00 0.07 0.06 78 1006.1
20200712011634 78 62 0.0 0.0 0.00 0.07 0.06 78 1006.0
20200712011103 78 63 0.0 0.0 0.00 0.07 0.06 78 1005.9
20200712010556 79 132 0.0 0.0 0.00 0.07 0.06 77 1005.8
20200712010155 79 132 0.0 0.0 0.00 0.07 0.06 77 1005.6
20200712005619 79 133 0.0 0.0 0.00 0.08 0.06 76 1005.6
20200712004740 80 133 0.0 0.0 0.00 0.08 0.06 75 1005.6
20200712004050 80 133 0.0 0.0 0.00 0.08 0.06 75 1005.5
20200712003605 80 132 0.0 0.0 0.00 0.08 0.06 74 1005.4
20200712003207 80 132 0.0 0.0 0.00 0.08 0.06 74 1005.3
20200712002557 81 6 0.0 0.0 0.00 0.08 0.06 74 1005.2
20200712002103 81 6 0.0 0.0 0.00 0.08 0.06 73 1005.2
20200712001636 81 6 0.0 0.0 0.00 0.08 0.06 72 1005.2
20200712001105 82 6 0.0 0.0 0.00 0.08 0.06 71 1005.2
20200712000549 82 6 0.0 1.0 0.00 0.08 0.06 71 1005.1
20200712000143 83 5 0.0 1.0 0.00 0.08 0.06 70 1005.1
20200711235550 83 15 0.0 0.0 0.00 0.10 0.06 70 1005.1
20200711234726 83 325 0.0 1.0 0.00 0.10 0.06 69 1005.1
20200711234049 83 316 0.0 2.0 0.00 0.10 0.06 69 1005.1
20200711233556 83 329 0.0 2.0 0.00 0.10 0.06 68 1005.0
20200711233145 84 174 0.0 1.0 0.00 0.10 0.06 68 1005.0
20200711232556 84 127 0.0 1.0 0.00 0.10 0.06 70 1005.0
20200711232051 84 95 0.0 1.0 0.00 0.10 0.06 69 1005.0
20200711231657 85 65 0.0 2.0 0.00 0.10 0.06 69 1004.8
20200711231048 85 105 0.0 2.0 0.00 0.10 0.06 69 1004.7
20200711230548 85 326 0.0 2.0 0.00 0.10 0.06 69 1004.7
20200711230118 86 337 0.0 1.0 0.00 0.10 0.06 68 1004.6
20200711225548 85 49 0.0 1.0 0.00 0.13 0.06 70 1004.7
20200711224716 86 56 0.0 3.0 0.00 0.13 0.06 69 1004.6
20200711224051 86 329 0.0 3.0 0.00 0.13 0.06 69 1004.5
20200711223551 86 27 0.0 2.0 0.00 0.13 0.06 68 1004.5
20200711223152 86 109 0.0 3.0 0.00 0.13 0.06 69 1004.4
20200711222550 86 84 0.0 1.0 0.00 0.13 0.06 70 1004.3
20200711222051 86 351 0.0 2.0 0.00 0.13 0.06 69 1004.2
20200711221608 86 105 0.0 4.0 0.00 0.13 0.06 69 1004.3
20200711221102 86 333 0.0 4.0 0.00 0.13 0.06 69 1004.3
20200711220605 86 9 0.0 2.0 0.00 0.13 0.06 69 1004.1
20200711220117 86 95 0.0 1.0 0.00 0.13 0.06 71 1004.1
20200711215550 86 93 0.0 4.0 0.00 0.18 0.06 69 1004.1
20200711214615 87 131 0.0 4.0 0.00 0.18 0.06 69 1004.0
20200711214102 87 220 0.0 4.0 0.00 0.18 0.06 69 1004.0
20200711213608 87 30 0.0 2.0 0.00 0.18 0.06 69 1004.0
20200711213132 87 93 0.0 1.0 0.00 0.18 0.06 70 1004.0
20200711212547 87 44 0.0 2.0 0.00 0.18 0.06 69 1004.0
20200711212050 88 34 0.0 3.0 0.00 0.18 0.06 70 1004.0
20200711211618 87 60 0.0 3.0 0.00 0.18 0.06 70 1004.1
20200711211106 87 88 0.0 1.0 0.00 0.18 0.06 70 1004.0
20200711210550 87 218 0.0 1.0 0.00 0.18 0.06 70 1004.0
20200711210124 87 16 0.0 1.0 0.00 0.18 0.06 69 1004.0
20200711205547 88 191 0.0 1.0 0.00 0.41 0.06 70 1004.1
20200711204648 88 90 0.0 2.0 0.00 0.41 0.06 72 1004.2
20200711204053 87 200 0.0 4.0 0.00 0.41 0.06 74 1004.1
20200711203552 87 50 0.0 4.0 0.00 0.41 0.06 74 1004.0
20200711203053 87 158 0.0 4.0 0.00 0.41 0.06 74 1004.1
20200711202551 86 354 0.0 4.0 0.00 0.41 0.06 75 1004.1
20200711202049 86 53 0.0 4.0 0.00 0.41 0.06 73 1004.2
20200711201632 86 53 0.0 2.0 0.00 0.41 0.06 73 1004.3
20200711201110 87 44 0.0 3.0 0.00 0.41 0.06 73 1004.3
20200711200613 86 37 0.0 3.0 0.00 0.41 0.06 75 1004.2
20200711200108 86 119 0.0 2.0 0.00 0.41 0.06 76 1004.3
20200711195548 86 169 0.0 2.0 0.00 0.65 0.06 75 1004.4
20200711194548 85 30 0.0 2.0 0.00 0.65 0.06 77 1004.4
20200711194035 85 19 0.0 2.0 0.00 0.65 0.06 77 1004.3
20200711193548 85 65 0.0 4.0 0.00 0.65 0.06 77 1004.4
20200711193137 86 50 0.0 4.0 0.00 0.65 0.06 77 1004.4
20200711192534 86 54 0.0 4.0 0.00 0.65 0.06 77 1004.4
20200711192040 86 34 0.0 1.0 0.00 0.65 0.06 79 1004.4
20200711191650 85 90 0.0 3.0 0.00 0.65 0.06 79 1004.5
20200711191036 85 352 0.0 3.0 0.00 0.65 0.06 78 1004.5
20200711190538 86 70 0.0 3.0 0.00 0.65 0.06 81 1004.5
20200711190148 85 85 0.0 3.0 0.00 0.65 0.06 80 1004.6
20200711185535 85 103 0.0 2.0 0.00 0.84 0.06 84 1004.7
20200711184552 84 37 0.0 3.0 0.00 0.84 0.06 84 1004.7
20200711184029 84 94 0.0 1.0 0.00 0.84 0.06 85 1004.7
20200711183530 84 333 0.0 1.0 0.00 0.84 0.06 86 1004.8
20200711183057 84 100 0.0 2.0 0.00 0.84 0.06 87 1004.9
20200711182529 84 70 0.0 2.0 0.00 0.84 0.06 86 1004.8
20200711182029 84 96 0.0 2.0 0.00 0.84 0.06 87 1004.8
20200711181655 83 25 0.0 2.0 0.00 0.84 0.06 90 1004.9
20200711181037 83 64 0.0 1.0 0.00 0.84 0.06 90 1005.1
20200711180540 83 133 0.0 1.0 0.00 0.84 0.06 91 1005.2
20200711180037 83 30 0.0 1.0 0.03 0.84 0.06 93 1005.2
20200711175530 82 39 0.0 1.0 0.05 1.54 0.06 91 1005.4
20200711174536 81 66 0.0 1.0 0.05 1.54 0.06 94 1005.5
20200711174024 81 105 0.0 1.0 0.05 1.54 0.06 96 1005.6
20200711173530 80 105 0.0 1.0 0.05 1.54 0.06 97 1005.7
20200711173024 79 105 0.0 1.0 0.05 1.54 0.06 97 1005.9
20200711172523 78 171 0.0 0.0 0.05 1.54 0.06 96 1006.0
20200711172024 78 171 0.0 0.0 0.05 1.54 0.06 95 1006.0
20200711171527 78 171 0.0 0.0 0.05 1.54 0.06 94 1006.1
20200711171045 79 171 0.0 1.0 0.05 1.54 0.06 93 1006.3
20200711170534 79 171 0.0 1.0 0.05 1.54 0.06 91 1006.4
20200711170031 80 195 0.0 2.0 0.04 1.53 0.05 89 1006.4
20200711165521 81 54 0.0 2.0 0.02 2.35 0.03 86 1006.4
20200711164529 82 9 0.0 1.0 0.00 2.33 0.01 83 1006.3
20200711164030 83 8 0.0 1.0 0.00 2.33 0.01 83 1006.3
20200711163523 83 194 0.0 2.0 0.00 2.33 0.01 85 1006.4
20200711163017 83 46 0.0 2.0 0.00 2.33 0.01 84 1006.4
20200711162527 83 350 0.0 1.0 0.00 2.33 0.01 85 1006.5
20200711162030 83 345 0.0 1.0 0.00 2.33 0.01 85 1006.4
20200711161537 83 37 0.0 1.0 0.00 2.33 0.01 85 1006.4
20200711161028 83 37 0.0 1.0 0.00 2.33 0.01 84 1006.4
20200711160525 83 29 0.0 1.0 0.00 2.33 0.01 84 1006.4
20200711160035 83 126 0.0 1.0 0.00 2.33 0.01 84 1006.5
20200711155520 84 163 0.0 1.0 0.00 2.77 0.01 85 1006.5
20200711154527 83 31 0.0 3.0 0.00 2.77 0.01 83 1006.6
20200711154035 84 37 0.0 1.0 0.00 2.77 0.01 83 1006.6
20200711153528 84 86 0.0 2.0 0.00 2.77 0.01 83 1006.5
20200711153043 84 327 0.0 2.0 0.00 2.77 0.01 85 1006.5
20200711152525 83 349 0.0 1.0 0.00 2.77 0.01 85 1006.5
20200711152020 83 93 0.0 1.0 0.00 2.77 0.01 87 1006.4
20200711151522 82 331 0.0 2.0 0.00 2.77 0.01 88 1006.4
20200711151015 82 43 0.0 2.0 0.00 2.77 0.01 87 1006.4
20200711150515 82 127 0.0 2.0 0.00 2.77 0.01 86 1006.4
20200711150035 82 43 0.0 2.0 0.00 2.77 0.01 88 1006.4
20200711145517 82 21 0.0 3.0 0.00 3.06 0.01 88 1006.4
20200711144551 82 214 0.0 3.0 0.00 3.06 0.01 91 1006.4
20200711144007 81 326 0.0 4.0 0.00 3.06 0.01 93 1006.3
20200711143508 81 256 0.0 4.0 0.00 3.06 0.01 95 1006.4
20200711143019 79 111 0.0 1.0 0.00 3.06 0.01 96 1006.3
20200711142514 79 50 0.0 1.0 0.00 3.06 0.01 96 1006.3
20200711142010 79 18 0.0 1.0 0.00 3.06 0.01 97 1006.4
20200711141514 79 19 0.0 1.0 0.00 3.06 0.01 97 1006.5
20200711141006 79 217 0.0 3.0 0.00 3.06 0.01 97 1006.4
20200711140514 79 135 0.0 3.0 0.00 3.06 0.01 98 1006.5
20200711140005 79 60 0.0 3.0 0.00 3.06 0.01 98 1006.4
20200711135501 79 103 0.0 2.0 0.00 3.13 0.01 99 1006.4
20200711134627 78 65 0.0 1.0 0.00 3.13 0.01 99 1006.3
20200711134058 77 313 0.0 2.0 0.00 3.13 0.01 99 1006.5
20200711133614 77 68 0.0 2.0 0.00 3.13 0.01 99 1006.4
20200711133146 77 348 0.0 2.0 0.00 3.13 0.01 99 1006.4
20200711132557 77 85 0.0 0.0 0.00 3.13 0.01 99 1006.3
20200711132055 77 85 0.0 1.0 0.00 3.13 0.01 99 1006.3
20200711131659 76 91 0.0 1.0 0.00 3.13 0.01 99 1006.3
20200711131056 76 3 0.0 1.0 0.00 3.13 0.01 99 1006.3
20200711130557 76 50 0.0 1.0 0.00 3.13 0.01 99 1006.3
20200711130220 76 111 0.0 0.0 0.00 3.13 0.01 99 1006.2
20200711125554 76 18 0.0 1.0 0.00 3.20 0.01 99 1006.2
20200711124514 76 13 0.0 0.0 0.00 3.20 0.01 99 1006.3
20200711124007 76 13 0.0 0.0 0.00 3.20 0.01 99 1006.5
20200711123600 76 11 0.0 0.0 0.00 3.20 0.01 100 1006.5
20200711123308 75 11 0.0 1.0 0.00 3.20 0.01 99 1006.5
20200711122559 75 11 0.0 1.0 0.00 3.20 0.01 99 1006.4
20200711122100 75 44 0.0 0.0 0.00 3.20 0.01 99 1006.3
20200711121713 75 33 0.0 0.0 0.00 3.20 0.01 99 1006.3
20200711121105 75 33 0.0 0.0 0.00 3.20 0.01 99 1006.2
20200711120557 74 33 0.0 0.0 0.00 3.20 0.01 99 1006.3
20200711120057 74 33 0.0 0.0 0.00 3.20 0.01 99 1006.4
20200711115600 74 33 0.0 0.0 0.01 3.21 0.01 100 1006.3
20200711114754 73 32 0.0 0.0 0.01 3.21 0.01 99 1006.3
20200711114052 73 33 0.0 0.0 0.01 3.21 0.01 99 1006.4
20200711113552 73 32 0.0 0.0 0.01 3.21 0.01 99 1006.4
20200711113257 73 33 0.0 0.0 0.01 3.21 0.01 99 1006.4
20200711112609 73 33 0.0 0.0 0.01 3.21 0.01 99 1006.4
20200711112052 73 33 0.0 0.0 0.01 3.21 0.01 99 1006.5
20200711111701 72 33 0.0 0.0 0.01 3.21 0.01 99 1006.5
20200711111056 72 32 0.0 0.0 0.01 3.21 0.01 99 1006.4
20200711110558 72 33 0.0 0.0 0.01 3.21 0.01 99 1006.3
20200711110216 72 33 0.0 0.0 0.01 3.21 0.01 99 1006.2
20200711105550 72 33 0.0 0.0 0.01 3.22 0.01 99 1006.1
20200711104558 71 32 0.0 0.0 0.00 3.21 0.00 99 1006.2
20200711104047 71 32 0.0 0.0 0.00 3.21 0.00 99 1006.2
20200711103601 71 33 0.0 0.0 0.00 3.21 0.00 99 1006.1
20200711103111 71 33 0.0 0.0 0.00 3.21 0.00 99 1006.1
20200711102553 71 32 0.0 0.0 0.00 3.21 0.00 99 1006.2
20200711102050 70 33 0.0 0.0 0.00 3.21 0.00 99 1006.2
20200711101602 70 33 0.0 0.0 0.00 3.21 0.00 99 1006.1
20200711101045 70 33 0.0 0.0 0.00 3.21 0.00 99 1006.1
20200711100546 70 33 0.0 0.0 0.00 3.21 0.00 99 1006.1